Home > Weather > Erkelenz > Past weeks

Flag for Germany Weather for the Past 2 Weeks in Erkelenz, North Rhine-Westphalia, Germany

Now
52 °F

Light rain. Passing clouds.


Feels Like: 49 °F
Forecast: 35 / 59 °F
Wind: 7 mph from Southwest

Location: Geilenkirchen Airport

Current Time: May 3, 2016 at 6:07:15 AM

Latest Report: May 3, 2016 at 4:50 AM


Visibility: N/A

Pressure: 30.07 "Hg

Humidity: 88%

Dew Point: 48 °F

Location of ErkelenzLocation

Historic Weather in Erkelenz — Graph

°F

Erkelenz Temperature Yesterday

Maximum temperature yesterday: 66 °F (at 2:50 PM)
Minimum temperature yesterday: 36 °F (at 4:50 AM)
Average temperature yesterday: 55 °F

High & Low Weather Summary for the Past Weeks

 TemperatureHumidityPressure
High66 °F (Apr 21, 2:50 PM)93% (Apr 18, 3:50 AM)30.48 "Hg (Apr 18, 3:50 AM)
Low32 °F (Apr 20, 4:50 AM)32% (Apr 21, 1:50 PM)29.53 "Hg (Apr 26, 9:50 AM)
Average46 °F71%30.04 "Hg
* Reported Apr 18 3:50 AM — May 3 3:50 AM, Erkelenz, Weather by CustomWeather, © 2016

Note: Actual official high and low records may vary slightly from our data, if they occured in-between our weather recording intervals... More about our weather records

Advertising

Erkelenz Weather History for the Previous 24 Hours

Scroll right to see more
 ConditionsComfort  
Time TempWeatherWind HumidityBarometerVisibility
3:50 AM
Tue, May 3
54 °FPassing clouds.7 mph82%30.07 "HgN/A
2:50 AM54 °FLight rain. Passing clouds.9 mph82%30.09 "HgN/A
1:50 AM55 °FPassing clouds.6 mph63%30.09 "HgN/A
12:50 AM55 °FClear.7 mph55%30.12 "Hg10 mi
11:50 PM
Mon, May 2
55 °FClear.6 mph55%30.12 "Hg10 mi
10:50 PM57 °FClear.3 mph51%30.12 "Hg10 mi
9:50 PM59 °FSunny.5 mph51%30.12 "Hg10 mi
8:50 PM61 °FSunny.5 mph48%30.12 "Hg10 mi
7:50 PM63 °FSunny.7 mph49%30.12 "Hg10 mi
6:50 PM64 °FSunny.12 mph49%30.12 "Hg10 mi
5:50 PM64 °FPartly sunny.9 mph52%30.12 "HgN/A
4:50 PM66 °FPartly sunny.12 mph49%30.15 "HgN/A
3:50 PM66 °FScattered clouds.5 mph46%30.18 "HgN/A
2:50 PM66 °FScattered clouds.8 mph46%30.18 "HgN/A
1:50 PM64 °FSunny.6 mph43%30.21 "Hg10 mi
12:50 PM63 °FSunny.3 mph52%30.24 "Hg10 mi
11:50 AM59 °FSunny.5 mph63%30.24 "Hg10 mi
10:50 AM59 °FSunny.2 mph59%30.27 "Hg10 mi
9:50 AM55 °FSunny.2 mph59%30.27 "Hg10 mi
8:50 AM50 °FSunny.2 mph71%30.30 "Hg10 mi
7:50 AM43 °FSunny.2 mph93%30.30 "Hg10 mi
6:50 AM37 °FClear.2 mph93%30.30 "Hg10 mi
Weather by CustomWeather, © 2016

See weather overviewHow to use our weather pages